This demonstration page uses our WeatherBlox Daily Observations layout. Learn more.

Left ArrowRight Arrow

39.95238, -75.16362

Hourly Observations for August 3, 2022

Temp ( °F °C ) Dew Point ( °F °C ) Humidity (%) Winds ( mph kmh ) Pressure ( in mb ) Visibility ( mi km ) Precip ( " mm )
12:54 am 00:54 Mostly Clear 79 26.1 66 18.9 65 65 N 3 6 29.92 1013 10 16 0.00 0.00
1:54 am 01:54 Mostly Clear 79 26.1 64 17.8 60 60 NNE 6 9 29.92 1013 10 16 0.00 0.00
2:54 am 02:54 Clear 78 25.6 64 17.8 62 62 NNW 7 11 29.94 1014 10 16 0.00 0.00
3:54 am 03:54 Clear 76 24.4 64 17.8 67 67 NNW 3 6 29.95 1014 10 16 0.00 0.00
4:54 am 04:54 Clear 76 24.4 62 16.7 62 62 N 5 7 29.96 1015 10 16 0.00 0.00
5:54 am 05:54 Mostly Cloudy 76 24.4 62 16.7 62 62 N 9 15 29.98 1015 10 16 0.00 0.00
6:54 am 06:54 Mostly Sunny 76 24.4 63 17.2 64 64 N 7 11 29.99 1016 10 16 0.00 0.00
7:54 am 07:54 Mostly Sunny 78 25.6 63 17.2 60 60 N 7 11 29.99 1016 10 16 0.00 0.00
8:54 am 08:54 Mostly Sunny 80 26.7 62 16.7 54 54 Calm 30.01 1016 10 16 0.00 0.00
9:54 am 09:54 Mostly Sunny 84 28.9 62 16.7 48 48 E 3 6 30.01 1016 10 16 0.00 0.00
10:54 am 10:54 Mostly Sunny 84 28.9 60 15.6 44 44 SSE 7 11 30.03 1017 10 16 0.00 0.00
11:54 am 11:54 Mostly Sunny 88 31.1 61 16.1 40 40 SSW 12 19 30.03 1017 10 16 0.00 0.00
12:54 pm 12:54 Mostly Sunny 90 32.2 62 16.7 39 39 W 14 22 30.02 1017 10 16 0.00 0.00
1:54 pm 13:54 Mostly Sunny 89 31.7 63 17.2 42 42 W 9 15 30.00 1016 10 16 0.00 0.00
2:54 pm 14:54 Mostly Sunny 91 32.8 63 17.2 39 39 SSW 12 19 29.99 1016 10 16 0.00 0.00
3:54 pm 15:54 Mostly Sunny 91 32.8 64 17.8 41 41 S 9 15 29.98 1015 10 16 0.00 0.00
4:54 pm 16:54 Partly Cloudy 91 32.8 65 18.3 42 42 SW 9 15 29.96 1015 10 16 0.00 0.00
5:54 pm 17:54 Mostly Sunny 91 32.8 64 17.8 41 41 SW 9 15 29.95 1014 10 16 0.00 0.00
6:54 pm 18:54 Mostly Sunny 90 32.2 66 18.9 45 45 SSW 9 15 29.96 1014 10 16 0.00 0.00
7:54 pm 19:54 Mostly Sunny 88 31.1 67 19.4 50 50 SSW 7 11 29.97 1015 10 16 0.00 0.00
8:54 pm 20:54 Mostly Clear 87 30.6 67 19.4 51 51 SSW 7 11 29.99 1016 10 16 0.00 0.00
9:54 pm 21:54 Clear 83 28.3 67 19.4 59 59 SSW 7 11 30.03 1017 10 16 0.00 0.00
10:54 pm 22:54 Clear 82 27.8 66 18.9 58 58 SSW 8 13 30.04 1017 10 16 0.00 0.00
11:54 pm 23:54 Clear 80 26.7 67 19.4 64 64 SW 5 7 30.04 1017 10 16 0.00 0.00

Powered by AerisWeather